Miami, FL

4:17 PM EDT on June 25, 2019 (GMT -0400)
Miami International

Weather History for KMIA - May, 2019

Change the Weather History Date:

Sunday, May 19, 2019

  Actual Average Record
Temperature  
Mean Temperature 83 °F 80 °F  
Max Temperature 89 °F 87 °F 94 °F (1995)
Min Temperature 77 °F 73 °F 60 °F (1951)
Degree Days  
Heating Degree Days 0 0  
Month to date heating degree days 0 0  
Since 1 July heating degree days 60 128  
Cooling Degree Days 18 15  
Month to date cooling degree days 322 268  
Year to date cooling degree days 1411 1161  
Growing Degree Days 33 (Base 50)    
Moisture  
Dew Point 70 °F    
Average Humidity 65    
Maximum Humidity 74    
Minimum Humidity 55    
Precipitation  
Precipitation 0.00 in 0.18 in 4.60 in (1904)
Month to date precipitation 4.59 2.61  
Year to date precipitation 13.19 12.62  
Snow  
Snow 0.00 in - - ()
Month to date snowfall 0.0  
Since 1 July snowfall 0.0  
Snow Depth 0.00 in    
Sea Level Pressure  
Sea Level Pressure 30.00 in    
Wind  
Wind Speed 10 mph (East)    
Max Wind Speed 17 mph    
Max Gust Speed 22 mph    
Visibility 10 miles    
Events      
T = Trace of Precipitation, MM = Missing Value Source: NWS Daily Summary

Daily Weather History Graph

Daily Weather History Graph

Search for Another Location

Airport or City:

Astronomy

May. 19, 2019 Rise Set
Actual Time 6:33 AM EDT 8:01 PM EDT
Civil Twilight 6:08 AM EDT 8:27 PM EDT
Nautical Twilight 5:38 AM EDT 8:57 PM EDT
Astronomical Twilight 5:07 AM EDT 9:28 PM EDT
Moon 9:00 PM EDT (5/19) 7:14 AM EDT (5/19)
Length of Visible Light 14h 18m
Length of Day
13h 28m
Full, 99% of the Moon is Illuminated
May 19
Full
May 26
Last Quarter
Jun 3
New
Jun 10
First Quarter
Jun 17
Full

Hourly Weather History & Observations

Time (EDT) Temp. Heat Index Dew Point Humidity Pressure Visibility Wind Dir Wind Speed Gust Speed Precip Events Conditions
12:53 AM 80.1 °F 83.2 °F 70.0 °F 71% 30.00 in 10.0 mi East 8.1 mph - N/A   Mostly Cloudy
1:53 AM 80.1 °F 83.2 °F 70.0 °F 71% 29.99 in 10.0 mi ENE 8.1 mph - N/A   Mostly Cloudy
2:53 AM 79.0 °F - 70.0 °F 74% 29.98 in 10.0 mi East 8.1 mph - N/A   Scattered Clouds
3:53 AM 79.0 °F - 70.0 °F 74% 29.98 in 10.0 mi East 5.8 mph - N/A   Scattered Clouds
4:53 AM 79.0 °F - 70.0 °F 74% 29.98 in 10.0 mi East 6.9 mph - N/A   Scattered Clouds
5:53 AM 79.0 °F - 70.0 °F 74% 29.98 in 10.0 mi NNE 3.5 mph - N/A   Scattered Clouds
6:53 AM 78.1 °F - 69.1 °F 74% 29.99 in 10.0 mi East 3.5 mph - N/A   Partly Cloudy
7:53 AM 81.0 °F 84.4 °F 70.0 °F 69% 30.00 in 10.0 mi East 6.9 mph - N/A   Partly Cloudy
8:53 AM 82.9 °F 87.5 °F 71.1 °F 67% 30.01 in 10.0 mi East 8.1 mph - N/A   Partly Cloudy
9:53 AM 84.0 °F 89.0 °F 71.1 °F 65% 30.01 in 10.0 mi East 8.1 mph - N/A   Scattered Clouds
10:53 AM 84.9 °F 89.4 °F 70.0 °F 61% 30.03 in 10.0 mi ENE 11.5 mph - N/A   Mostly Cloudy
11:53 AM 87.1 °F 92.0 °F 70.0 °F 57% 30.03 in 10.0 mi East 15.0 mph 20.7 mph N/A   Mostly Cloudy
12:53 PM 88.0 °F 92.9 °F 70.0 °F 55% 30.02 in 10.0 mi East 12.7 mph 18.4 mph N/A   Mostly Cloudy
1:53 PM 88.0 °F 92.1 °F 69.1 °F 53% 30.02 in 10.0 mi ENE 12.7 mph - N/A   Scattered Clouds
2:53 PM 88.0 °F 92.1 °F 69.1 °F 53% 30.01 in 10.0 mi ESE 13.8 mph - N/A   Scattered Clouds
3:53 PM 87.1 °F 92.8 °F 71.1 °F 59% 29.98 in 10.0 mi East 15.0 mph - N/A   Scattered Clouds
4:53 PM 86.0 °F 90.1 °F 69.1 °F 57% 29.98 in 10.0 mi East 12.7 mph - N/A   Scattered Clouds
5:53 PM 84.9 °F 88.8 °F 69.1 °F 59% 29.98 in 10.0 mi East 13.8 mph - N/A   Scattered Clouds
6:53 PM 82.9 °F 86.5 °F 69.1 °F 63% 29.97 in 10.0 mi ESE 13.8 mph - N/A   Scattered Clouds
7:53 PM 82.0 °F 84.9 °F 68.0 °F 62% 29.98 in 10.0 mi ESE 8.1 mph - N/A   Scattered Clouds
8:53 PM 81.0 °F 84.1 °F 69.1 °F 67% 30.00 in 10.0 mi East 9.2 mph - N/A   Partly Cloudy
9:53 PM 81.0 °F 83.8 °F 68.0 °F 65% 30.02 in 10.0 mi East 11.5 mph - N/A   Partly Cloudy
10:53 PM 81.0 °F 84.1 °F 69.1 °F 67% 30.03 in 10.0 mi East 10.4 mph - N/A   Partly Cloudy
11:53 PM 80.1 °F 83.2 °F 70.0 °F 71% 30.03 in 10.0 mi East 8.1 mph - N/A   Partly Cloudy